www.pogodaiklimat.ru
ПОГОДА в Ньюберге
Время
(UTC), дата
04:45 14.12
05:45 14.12
07:45 14.12
08:45 14.12
09:10 14.12
09:45 14.12
10:45 14.12
11:45 14.12
12:45 14.12
13:45 14.12
14:45 14.12
15:45 14.12
16:45 14.12
17:15 14.12
17:45 14.12
18:45 14.12
19:45 14.12
20:10 14.12
20:45 14.12
21:45 14.12
22:45 14.12
23:45 14.12
00:45 14.12
01:45 14.12
02:45 14.12
03:45 14.12
04:45 15.12
05:45 15.12
06:45 15.12
07:45 15.12
08:45 15.12
09:45 15.12
10:45 15.12
11:45 15.12
12:45 15.12
13:45 15.12
14:45 15.12
15:45 15.12
16:45 15.12
17:45 15.12
18:45 15.12
19:45 15.12
20:45 15.12
21:45 15.12
22:28 15.12
22:45 15.12
23:45 15.12
00:45 15.12
Ветер
(напр.,м/с)
Видим. Явления Облачность Т
(С)
Тd
(С)
f
(%)
Тe
(С)
Тes
(С)
Комфортность P
(гПа)
Po
(гПа)
Тmin
(С)
Tmax
(С)
R
(мм)
R24
(мм)
S
(см)
В 4 3 км слабый дождь, дымка 8/8 120 м +6.0 +6.0 100 +2 +2 993.2
В 4 3 км слабый дождь, дымка 8/8 120 м +7.0 +7.0 100 +3 +3 990.2
нст 3 5 км -RABR 10/10 150 м +6.0 +6.0 100 +2 +2 986.9
СВ 3 5 км -RABR 10/10 150 м +6.0 +6.0 100 +2 +2 985.2
ЮВ 3 800 м -RABR 10/10 120 м +5.0 +5.0 100 +1 +1 984.2
ЮВ 3 400 м -RAFG 10/10 120 м +5.0 +5.0 100 +1 +1 983.2
З 3 800 м -RAFG 10/10 120 м +5.0 +5.0 100 +1 +1 982.6
нст 3 400 м -RAFG 10/10 120 м +5.0 +5.0 100 +1 +1 981.9
нст 3 400 м -RAFG 10/10 120 м +5.0 +5.0 100 +1 +1 980.6
нст 3 400 м -RAFG 10/10 120 м +5.0 +5.0 100 +1 +1 979.9
нст 3 400 м -RAFG 10/10 60 м +6.0 +6.0 100 +2 +2 978.9
нст 3 800 м слабый дождь, туман ?/? +7.0 +7.0 100 +4 +4 976.6
нст 3 400 м слабый дождь, туман ?/? +7.0 +7.0 100 +4 +4 974.6
нст 3 400 м слабый дождь, туман ?/? +7.0 +7.0 100 +4 +4 973.6
В 3 208 м слабый дождь, туман ?/? +7.0 +7.0 100 +4 +4 972.6
В 3 400 м слабый дождь, туман 10/10 60 м +7.0 +7.0 100 +3 +3 970.6
В 2 400 м слабый дождь, туман 10/10 60 м +7.0 +7.0 100 +4 +4 969.9
0 1 км слабый дождь, туман 10/10 90 м +7.0 +7.0 100 +6 +6 969.6
СЗ 5 2 км слабая морось, туман 10/10 120 м +7.0 +7.0 100 +2 +2 969.6
ЮЗ 5 16 км 5/5 300 м +8.0 +8.0 100 +4 +4 969.9
ЮЗ 6
{10}
16 км 5/5 600 м +9.0 +9.0 100 +5 +5 970.6
З 6
{9}
16 км 5/5 600 м +9.0 +9.0 100 +5 +5 970.9
З 10
{13}
16 км 8/8 900 м +8.0 +7.0 93 +2 +2 972.6
З 14
{19}
16 км 8/8 750 м +5.0 +2.0 81 -3 -3 974.6
З 8
{13}
16 км 8/8 1050 м +4.0 +2.0 87 -3 -3 975.2
З 9
{14}
16 км 8/8 1050 м +4.0 +2.0 87 -3 -3 976.9
З 9
{14}
16 км 8/8 1050 м +4.0 +2.0 87 -3 -3 977.6
З 10
{16}
16 км 8/8 1050 м +4.0 +2.0 87 -3 -3 979.2
З 10
{16}
16 км 10/10 1050 м +4.0 +1.0 81 -3 -3 980.2
З 10
{16}
16 км 8/8 1050 м +4.0 +2.0 87 -3 -3 981.6
З 10
{16}
16 км 8/8 1050 м +4.0 +2.0 87 -3 -3 982.2
З 8
{13}
16 км 8/8 1050 м +5.0 0.0 70 -1 -1 983.9
З 5
{10}
16 км 10/10 1500 м +5.0 0.0 70 0 0 984.9
З 5
{9}
32 км 10/5 1500 м
[средняя]
+5.0 +1.0 75 0 0 985.9
З 6
{10}
32 км 8/5 1500 м
[средняя]
+5.0 +1.0 75 -0 -0 986.9
З 8
{11}
32 км 8/8 1500 м
[средняя]
+5.0 +1.0 75 -1 -1 987.9
З 9
{14}
32 км 8/8 1500 м
[средняя]
+5.0 0.0 70 -1 -1 988.5
З 13
{17}
32 км 8/8 1200 м
[средняя]
+6.0 -2.0 56 -1 -1 989.2
З 11
{17}
32 км 8/8 1200 м +5.0 -3.0 56 -2 -2 990.2
З 10
{13}
32 км 8/8 1200 м +5.0 -3.0 56 -1 -1 990.9
З 13
{18}
16 км 8/8 1200 м +5.0 -4.0 52 -2 -2 992.2
З 10
{17}
16 км 8/8 1800 м +4.0 -4.0 56 -3 -3 993.5
З 7
{14}
16 км 8/8 1500 м +3.0 -3.0 65 -3 -3 995.5
З 7
{45}
16 км 8/8 1500 м +2.0 -3.0 69 -5 -5 997.5
З 7
{9}
16 км 8/8 1500 м +2.0 -3.0 69 -5 -5 997.5
СЗ 9
{11}
16 км 8/8 1500 м +2.0 -3.0 69 -5 -5 998.5
СЗ 6
{8}
16 км 5/5 1500 м +1.0 -5.0 64 -5 -5 999.2
З 6
{10}
16 км 5/5 1500 м +1.0 -5.0 64 -5 -5 1000.2
Местоположение метеостанции Stewart International Airport: широта 41.5000 долгота -74.1000 высота над уровнем моря 150 м.
В архиве по умолчанию представлена погода в Ньюберге за последние 1-2 суток. Обновление информации о фактической погоде в базе происходит ежечасно! Архивные данные за месяц целиком и за предыдущие месяцы Вы можете получить, выбрав интересующий диапазон дат из раскрывающегося списка и нажав кнопку "Ввод!".
Внимание! Архив погоды МЕТАР в базе сайта по станциям, не включенным в климатический монитор, хранится не более 60 дней. Нет смысла пытаться выбрать более раннюю дату.
*Определитесь, кто Вы:
Внимание! Время в таблицах - всемирное. Для получения местного времени необходимо прибавить поправку, которая равна ч.
Смотрите также архив погоды в соседних городах и на ближайших метеорологических станциях:
Партнеры нашего сайта:      
Пояснения к столбцам:
  • Ветер - указаны скорость ветра в м/с - средняя за 10 мин, порывы в срок и между сроками (в фигурных скобках) и направление, откуда дует ветер: С - северный,
  • СВ - северо-восточный, В - восточный, ЮВ - юго-восточный, Ю - южный, ЮЗ - юго-западный, З - западный, СЗ - северо-западный.
  • Видимость - горизонтальная дальность видимости в метрах или километрах. При видимости от 1 до 10 км при отсутствии осадков обычно наблюдается дымка, при ухудшении видимости до 1 км и менее - туман. В сухую погоду видимость может ухудшаться дымом, пылью или мглою.
  • Явления - указаны атмосферные явления, наблюдавшиеся в срок или в последний час перед сроком; фигурными скобками обозначены явления, наблюдавшиеся между сроками (за 1-3 часа до срока); квадратными скобками обозначены град или гололедные отложения с указанием их диаметра в мм.
  • Облачность - указаны через наклонную черту общая и нижняя облачность в баллах и высота нижней границы облаков в метрах; квадратными скобками обозначены формы облаков: Ci - перистые, Cs - перисто-слоистые, Cc - перисто-кучевые, Ac - высококучевые, As - высокослоистые, Sc - слоисто-кучевые, Ns - слоисто-дождевые, Cu - кучевые, Cb - кучево-дождевые. Подробнее классификацию облаков см. в Атласе облаков (PDF).
  • T - Температура воздуха - температура, измеренная на высоте 2 м над землей.
  • Td - Температура точки росы - температура, при понижении до которой содержащийся в воздухе водяной пар достигнет насыщения.
  • f - Относительная влажность воздуха - влажноcть воздуха, измеренная на высоте 2 м над землей.
  • Te - Эффективная температура - температура, которую ощущает одетый по сезону человек в тени. Характеристика душности погоды. При расчете учитывается влияние влажности воздуха и скорости ветра на теплоощущения человека.
  • Tes - Эффективная температура на солнце - температура, которую ощущает человек, с поправкой на солнечный нагрев. Характеристика знойности погоды. Зависит от высоты солнца над горизонтом, облачности и скорости ветра. Ночью, в пасмурную погоду, а также при ветре 12 м/с и более поправка равна нулю.
  • P - Атмосферное давление - приведенное к уровню моря атмосферное давление.
  • Po - Атмосферное давление - измеренное на уровне метеостанции атмосферное давление.
  • Tmin - Минимальная температура - минимум температуры воздуха на высоте 2 м над землей.
  • Tmax - Максимальная температура - максимум температуры воздуха на высоте 2 м над землей.
  • R - Количество осадков - Количество выпавших осадков за период времени, мм. При наведении курсора мыши на число - период времени, за который выпало указанное количество осадков.
  • R24 - Количество осадков - Количество выпавших осадков за 24 часа, мм.
  • S - Снежный покров - Высота снежного покрова, см. При наведении курсора мыши на число - состояние снежного покрова и степень покрытия местности в баллах.